User: anonymous   Login
Location: Writing-on-Stone Provincial Park
(49.0825°N, 111.6163°W)
Time: 18:12:43
(UTC-06:00)
Language:

BREEZE-M DEB (TANK) - Orbit

View from above orbital plane
View from above orbital plane
View from above satellite
View from above satellite

Ground track
Ground track

The orbit data is extracted from the following two-line orbital elements,

1 29649U 06056B   16182.78832234  .00001776  00000-0  26597-3 0  9995
2 29649  49.4572 130.5500 5395477 302.2475  16.4854  4.98584672170223
Epoch (UTC): 30 June 2016 18:55:11
Eccentricity: 0.5395477
inclination: 49.4572°
perigee height: 286 km
apogee height: 15904 km
right ascension of ascending node: 130.5500°
argument of perigee: 302.2475°
revolutions per day: 4.98584672
mean anomaly at epoch: 16.4854°
orbit number at epoch: 17022

The dashed part of the orbit path shows where the satellite is in the earth's shadow,  

DLR